Location: Township of Marena
(38.1747°N, 99.6798°W)
Time: 03:25:13
(UTC+00:00)

Cosmos 1269 Rocket - Pass Details

Date: 26 October 2020
Orbit: 773 x 779 km, 74.1° (Epoch: 24 November)

Event Time Altitude Azimuth Distance (km) Brightness Sun altitude
Exits shadow 10:57:39 50° 327° (NNW) 988 4.3 -24.4°
Drops below altitude 10° 11:02:01 10° 10° (N) 2,337 6.6 -23.6°
Sets 11:04:28 0° 14° (NNE) 3,269 7.5 -23.1°
